Location: ??????
(55.6130°N, 37.7882°E)
Time: 04:03:47
(UTC+00:00)

Intercosmos 25 Rocket - Pass Details

Date: 14 April 2024
Orbit: 434 x 2971 km, 82.6° (Epoch: 23 May)

Event Time Altitude Azimuth Distance (km) Brightness Sun altitude
Rises 01:13:01 0° 345° (NNW) 2,433 6.9 -10.1°
Reaches altitude 10° 01:14:55 10° 342° (NNW) 1,577 5.9 -9.9°
Maximum altitude 01:18:05 62° 261° (W) 561 3.1 -9.5°
Drops below altitude 10° 01:22:06 10° 180° (S) 1,983 5.8 -9.0°
Sets 01:24:45 0° 178° (S) 3,157 6.9 -8.7°
